Dickinson, ND

1:58 PM MDT on April 27, 2017 (GMT -0600)
Dickinson Municipal

Weather History for KDIK - October, 2012

Change the Weather History Date:

Monday, October 1, 2012

  Actual Average Record
Temperature  
Mean Temperature 51 °F 50 °F  
Max Temperature 66 °F 64 °F 94 °F (1953)
Min Temperature 36 °F 37 °F 12 °F (1936)
Degree Days  
Heating Degree Days 14 15  
Month to date heating degree days 14 15  
Since 1 July heating degree days 238 369  
Cooling Degree Days 0 0  
Month to date cooling degree days 0 0  
Year to date cooling degree days 591 418  
Moisture  
Dew Point 37 °F    
Average Humidity 64    
Maximum Humidity 100    
Minimum Humidity 27    
Precipitation  
Precipitation 0.00 in 0.05 in 0.98 in (1971)
Month to date precipitation 0.00 0.05  
Year to date precipitation 8.59 13.81  
Sea Level Pressure  
Sea Level Pressure 30.17 in    
Wind  
Wind Speed 9 mph (West)    
Max Wind Speed 20 mph    
Max Gust Speed 24 mph    
Visibility 7 miles    
Events Fog    
T = Trace of Precipitation, MM = Missing Value Source: NWS Daily Summary

Daily Weather History Graph

Daily Weather History Graph

Search for Another Location

Airport or City:

Trip Planner

Search our weather history database for the weather conditions in past years. The results will help you decide how hot, cold, wet, or windy it might be!

Date:

Astronomy

Oct. 01, 2012 Rise Set
Actual Time 6:50 AM MDT 6:29 PM MDT
Civil Twilight 6:20 AM MDT 7:00 PM MDT
Nautical Twilight 5:45 AM MDT 7:35 PM MDT
Astronomical Twilight 5:09 AM MDT 8:10 PM MDT
Moon 6:57 PM MDT (10/1) 8:31 AM MDT (10/1)
Length of Visible Light 12h 39m
Length of Day
11h 39m
Full, 97% of the Moon is Illuminated
Oct 1
Full
Oct 8
Last Quarter
Oct 15
New
Oct 21
First Quarter
Oct 29
Full

Hourly Weather History & Observations

Time (MDT) Temp. Windchill Dew Point Humidity Pressure Visibility Wind Dir Wind Speed Gust Speed Precip Events Conditions
12:56 AM 43.0 °F 40.3 °F 42.1 °F 97% 30.21 in 9.0 mi WNW 4.6 mph - N/A   Clear
1:56 AM 45.0 °F 40.1 °F 43.0 °F 93% 30.21 in 10.0 mi NNW 9.2 mph - N/A   Clear
2:56 AM 41.0 °F 37.1 °F 39.9 °F 96% 30.23 in 5.0 mi WNW 5.8 mph - N/A   Clear
3:42 AM 41.0 °F 37.1 °F 39.2 °F 93% 30.23 in 6.0 mi WNW 5.8 mph - N/A   Scattered Clouds
3:54 AM 41.0 °F 35.8 °F 39.2 °F 93% 30.23 in 5.0 mi WNW 8.1 mph - N/A   Mostly Cloudy
4:05 AM 42.8 °F 38.0 °F 41.0 °F 93% 30.23 in 1.5 mi WNW 8.1 mph - N/A   Overcast
4:11 AM 42.8 °F 38.0 °F 42.8 °F 100% 30.23 in 0.8 mi WNW 8.1 mph - N/A   Mist
4:23 AM 39.2 °F 34.2 °F 39.2 °F 100% 30.24 in 2.0 mi West 6.9 mph - N/A   Overcast
4:28 AM 39.2 °F 33.6 °F 39.2 °F 100% 30.24 in 0.8 mi WNW 8.1 mph - N/A   Mist
4:42 AM 41.0 °F 36.4 °F 41.0 °F 100% 30.24 in 0.2 mi WNW 6.9 mph - N/A Fog Fog
4:56 AM 41.0 °F 38.0 °F 41.0 °F 100% 30.24 in 0.2 mi WNW 4.6 mph - N/A Fog Fog
5:16 AM 41.0 °F 36.4 °F 39.2 °F 93% 30.23 in 0.5 mi West 6.9 mph - N/A Fog Fog
5:33 AM 39.2 °F 34.2 °F 39.2 °F 100% 30.23 in 2.5 mi WNW 6.9 mph - N/A   Mostly Cloudy
5:37 AM 39.2 °F 34.2 °F 37.4 °F 93% 30.23 in 5.0 mi WNW 6.9 mph - N/A   Scattered Clouds
5:56 AM 39.0 °F 33.4 °F 37.9 °F 96% 30.26 in 8.0 mi WNW 8.1 mph - N/A   Clear
6:56 AM 37.0 °F 33.3 °F 37.0 °F 100% 30.27 in 8.0 mi West 4.6 mph - N/A   Clear
7:56 AM 41.0 °F 36.4 °F 39.9 °F 96% 30.28 in 10.0 mi West 6.9 mph - N/A   Clear
8:56 AM 46.9 °F - 43.0 °F 86% 30.27 in 10.0 mi West 11.5 mph - N/A   Clear
9:56 AM 52.0 °F - 44.1 °F 74% 30.27 in 10.0 mi West 10.4 mph - N/A   Clear
10:56 AM 57.9 °F - 39.0 °F 49% 30.25 in 10.0 mi WNW 6.9 mph - N/A   Clear
12:56 PM 62.1 °F - 30.9 °F 31% 30.19 in 10.0 mi Variable 5.8 mph - N/A   Clear
3:56 PM 64.9 °F - 32.0 °F 29% 30.09 in 10.0 mi SW 5.8 mph - N/A   Clear
4:56 PM 64.9 °F - 30.0 °F 27% 30.06 in 10.0 mi SSW 6.9 mph - N/A   Clear
5:56 PM 62.1 °F - 28.9 °F 29% 30.02 in 10.0 mi South 9.2 mph - N/A   Clear
6:56 PM 52.0 °F - 28.9 °F 41% 30.02 in 10.0 mi South 6.9 mph - N/A   Clear
7:56 PM 48.9 °F - 28.9 °F 46% 30.00 in 10.0 mi South 6.9 mph - N/A   Clear
8:56 PM 46.0 °F 41.0 °F 28.9 °F 51% 29.97 in 10.0 mi South 10.4 mph - N/A   Clear
10:56 PM 51.1 °F - 30.0 °F 44% 29.87 in 10.0 mi South 16.1 mph - N/A   Clear
11:56 PM 52.0 °F - 30.9 °F 45% 29.81 in 10.0 mi South 17.3 mph 24.2 mph N/A   Clear